Regional Weather Roundup
Issued by NWS

Home | Current Version | Previous Version | Graphics & Text | Print | Product List | Glossary On
Versions: 1 2 3 4 5 6 7 8 9 10 11 12 13 14 15 16 17 18 19 20 21 22 23 24 25 26 27 28
000
ASUS45 KCYS 281910
RWRWY

WYOMING REGIONAL WEATHER ROUNDUP
NATIONAL WEATHER SERVICE CHEYENNE WY
100 PM MDT THU JUL 28 2016

NOTE:  "FAIR" INDICATES FEW OR NO CLOUDS BELOW 12,000 FEET
WITH NO SIGNIFICANT WEATHER AND/OR OBSTRUCTIONS TO VISIBILITY.

WYZ001-282000-
YELLOWSTONE NATIONAL PARK

CITY           SKY/WX    TMP DP  RH WIND       PRES   REMARKS
LK YELLOWSTONE   N/A     69  40  34 VRB6      30.39F
W YELLOWSTONE  NOT AVBL

$$
WYZ002>013-054>058-071-098>099-282000-
NORTHERN WYOMING

CITY           SKY/WX    TMP DP  RH WIND       PRES   REMARKS
JACKSON        SUNNY     79  37  22 SW7       30.26F
CODY           FAIR      73  48  40 N8        30.24F
GREYBULL       FAIR      80  51  36 N7        30.16F
WORLAND        FAIR      78  53  41 N6        30.17F
SHERIDAN       FAIR      77  53  43 N6        30.20F
BUFFALO        FAIR      72  52  49 NE8       30.26S
GILLETTE       FAIR      72  57  59 N13       30.21F
HULETT         MOCLDY    61  57  88 W5        30.23S
NEWCASTLE      MOCLDY    66  52  59 NW13      30.24S

$$
WYZ014>020-022>026-101>103-282000-
CENTRAL WYOMING

CITY           SKY/WX    TMP DP  RH WIND       PRES   REMARKS
BIG PINEY      FAIR      87  26  11 N17G24    30.29F
PINEDALE       FAIR      79  32  18 N8        30.30F
DUBOIS         FAIR      77  37  24 E5        30.29F
LANDER         FAIR      81  50  33 E8        30.21F
RIVERTON       FAIR      76  46  34 VRB6      30.23F
CASPER         FAIR      77  48  35 CALM      30.23F
DOUGLAS          N/A    N/A N/A N/A MISG      30.22F

$$
WYZ021-027>030-104>119-282000-
SOUTHERN WYOMING

CITY           SKY/WX    TMP DP  RH WIND       PRES   REMARKS
EVANSTON       FAIR      87  27  11 W15       30.31F
KEMMERER         N/A    N/A N/A N/A W21G30    30.33F
FORT BRIDGER   FAIR      89  28  11 NW10G22   30.33F
ROCK SPRINGS   FAIR      81  39  22 W7        30.29F
DIXON          FAIR      85  35  16 W8        30.28F
RAWLINS        FAIR      76  48  37 CALM      30.29F
SARATOGA       FAIR      77  50  38 N8        30.31F
LARAMIE        FAIR      73  49  42 N6        30.32F
CHEYENNE       CLOUDY    64  54  69 NE14G20   30.29S
TORRINGTON     FAIR      74  54  49 S8        30.19S
PINE BLUFFS    MOCLDY    68  54  60 E15       30.24F

$$




USA.gov is the U.S. government's official web portal to all federal, state and local government web resources and services.